• In Russia
  • List of Countries
  • For 7 days
  • Water Temperature
  • Satellite Maps
  • Weather Map
  • Weather Widgets
  • user-avatar
    Login

    Hourly Weather Elovka

    Today, 25 September, Tuesday

    Time Temperature Precipitation Wind Pressure Humidity
    00:00 +8°C° 0 mm 1 mps 717 mmHg 71%
    01:00 +8°C° 0 mm 1 mps 717 mmHg 71%
    02:00 +7°C° 0 mm 1 mps 717 mmHg 71%
    03:00 +7°C° 0 mm 1 mps 717 mmHg 72%
    04:00 +7°C° 0 mm 1 mps 717 mmHg 73%
    05:00 +8°C° 0 mm 1 mps 717 mmHg 70%
    06:00 +8°C° 0 mm 1 mps 717 mmHg 68%
    07:00 +9°C° 0 mm 1 mps 717 mmHg 62%
    08:00 +11°C° 0 mm 1 mps 717 mmHg 56%
    09:00 +14°C° 0 mm 1 mps 717 mmHg 50%
    10:00 +16°C° 0 mm 2 mps 717 mmHg 43%
    11:00 +17°C° 0 mm 2 mps 717 mmHg 42%
    12:00 +18°C° 0 mm 2 mps 716 mmHg 41%
    13:00 +20°C° 0 mm 2 mps 716 mmHg 39%
    14:00 +19°C° 0 mm 2 mps 716 mmHg 41%
    15:00 +19°C° 0 mm 2 mps 716 mmHg 43%
    16:00 +19°C° 0 mm 2 mps 716 mmHg 45%
    17:00 +17°C° 0 mm 2 mps 715 mmHg 51%
    18:00 +14°C° 0 mm 2 mps 715 mmHg 58%
    19:00 +12°C° 0 mm 2 mps 715 mmHg 64%
    20:00 +12°C° 0 mm 2 mps 715 mmHg 65%
    21:00 +10°C° 0 mm 2 mps 715 mmHg 66%
    22:00 +10°C° 0 mm 2 mps 715 mmHg 67%
    23:00 +9°C° 0 mm 2 mps 715 mmHg 68%

    Tomorrow, 26 September, Wednesday

    Time Temperature Precipitation Wind Pressure Humidity
    00:00 +9°C° 0 mm 2 mps 715 mmHg 69%
    01:00 +9°C° 0 mm 2 mps 715 mmHg 70%
    02:00 +10°C° 0 mm 1 mps 715 mmHg 71%
    03:00 +9°C° 0 mm 1 mps 714 mmHg 72%
    04:00 +9°C° 0 mm 1 mps 714 mmHg 72%
    05:00 +10°C° 0 mm 1 mps 714 mmHg 71%
    06:00 +10°C° 0 mm 1 mps 714 mmHg 70%
    07:00 +10°C° 0 mm 1 mps 714 mmHg 69%
    08:00 +13°C° 0 mm 1 mps 714 mmHg 63%
    09:00 +15°C° 0 mm 1 mps 714 mmHg 56%
    10:00 +18°C° 0 mm 1 mps 714 mmHg 50%
    11:00 +18°C° 0.5 mm 1 mps 714 mmHg 54%
    12:00 +16°C° 0.5 mm 2 mps 714 mmHg 59%
    13:00 +16°C° 0.5 mm 2 mps 713 mmHg 64%
    14:00 +15°C° 1.3 mm 2 mps 713 mmHg 73%
    15:00 +13°C° 1.3 mm 2 mps 713 mmHg 81%
    16:00 +10°C° 1.3 mm 3 mps 713 mmHg 90%
    17:00 +9°C° 0.7 mm 3 mps 714 mmHg 90%
    18:00 +9°C° 0.7 mm 3 mps 714 mmHg 91%
    19:00 +8°C° 0.7 mm 3 mps 714 mmHg 91%
    20:00 +8°C° 0.3 mm 3 mps 714 mmHg 91%
    21:00 +8°C° 0.3 mm 2 mps 714 mmHg 91%
    22:00 +8°C° 0.3 mm 2 mps 715 mmHg 91%
    23:00 +7°C° 0.1 mm 3 mps 714 mmHg 91%

    Day after tomorrow, 27 September, Thursday

    Time Temperature Precipitation Wind Pressure Humidity
    00:00 +7°C° 0.1 mm 3 mps 714 mmHg 92%
    01:00 +7°C° 0.1 mm 3 mps 714 mmHg 92%
    02:00 +7°C° 0.1 mm 3 mps 714 mmHg 91%
    03:00 +7°C° 0.1 mm 3 mps 715 mmHg 90%
    04:00 +5°C° 0.1 mm 4 mps 715 mmHg 89%
    05:00 +5°C° 0.1 mm 4 mps 715 mmHg 88%
    06:00 +4°C° 0.1 mm 4 mps 715 mmHg 87%
    07:00 +3°C° 0.1 mm 5 mps 715 mmHg 86%
    08:00 +3°C° 0.1 mm 5 mps 716 mmHg 83%
    09:00 +3°C° 0.1 mm 5 mps 716 mmHg 80%
    10:00 +5°C° 0.1 mm 5 mps 716 mmHg 76%
    11:00 +5°C° 0.1 mm 5 mps 715 mmHg 74%
    12:00 +5°C° 0.1 mm 5 mps 715 mmHg 71%
    13:00 +5°C° 0.1 mm 5 mps 715 mmHg 69%
    14:00 +5°C° 0.1 mm 5 mps 715 mmHg 69%
    15:00 +5°C° 0.1 mm 5 mps 715 mmHg 69%
    16:00 +5°C° 0.1 mm 5 mps 714 mmHg 69%
    17:00 +5°C° 0.1 mm 5 mps 714 mmHg 73%
    18:00 +5°C° 0.1 mm 4 mps 714 mmHg 77%
    19:00 +4°C° 0.1 mm 4 mps 714 mmHg 81%
    20:00 +4°C° 0.3 mm 4 mps 714 mmHg 82%
    21:00 +3°C° 0.3 mm 5 mps 714 mmHg 84%
    22:00 +3°C° 0.3 mm 5 mps 714 mmHg 86%
    23:00 +3°C° 0.7 mm 5 mps 713 mmHg 87%

    28 September, Friday

    Time Temperature Precipitation Wind Pressure Humidity
    00:00 +3°C° 0.7 mm 5 mps 713 mmHg 87%
    01:00 +3°C° 0.7 mm 5 mps 713 mmHg 88%
    02:00 +3°C° 0.7 mm 6 mps 713 mmHg 89%
    03:00 +3°C° 0.7 mm 6 mps 713 mmHg 89%
    04:00 +3°C° 0.7 mm 6 mps 713 mmHg 89%
    05:00 +3°C° 0.5 mm 6 mps 713 mmHg 89%
    06:00 +3°C° 0.5 mm 6 mps 713 mmHg 88%
    07:00 +3°C° 0.5 mm 6 mps 713 mmHg 88%
    08:00 +3°C° 0.5 mm 6 mps 714 mmHg 88%
    09:00 +5°C° 0.5 mm 5 mps 714 mmHg 87%
    10:00 +5°C° 0.5 mm 5 mps 714 mmHg 87%
    11:00 +5°C° 0.4 mm 5 mps 715 mmHg 87%
    12:00 +5°C° 0.4 mm 4 mps 715 mmHg 86%
    13:00 +5°C° 0.4 mm 4 mps 716 mmHg 86%
    14:00 +5°C° 0.3 mm 4 mps 716 mmHg 86%
    15:00 +5°C° 0.3 mm 3 mps 717 mmHg 87%
    16:00 +5°C° 0.3 mm 3 mps 718 mmHg 87%
    17:00 +5°C° 0.3 mm 3 mps 719 mmHg 89%
    18:00 +6°C° 0.3 mm 2 mps 719 mmHg 91%
    19:00 +5°C° 0.3 mm 2 mps 720 mmHg 93%
    20:00 +5°C° 0.1 mm 2 mps 720 mmHg 94%
    21:00 +5°C° 0.1 mm 2 mps 721 mmHg 95%
    22:00 +5°C° 0.1 mm 2 mps 721 mmHg 96%
    23:00 +5°C° 0.2 mm 2 mps 721 mmHg 95%

    29 September, Saturday

    Time Temperature Precipitation Wind Pressure Humidity
    00:00 +5°C° 0.2 mm 2 mps 721 mmHg 95%
    01:00 +5°C° 0.2 mm 2 mps 722 mmHg 95%
    02:00 +5°C° 0.2 mm 2 mps 722 mmHg 95%
    03:00 +5°C° 0.2 mm 2 mps 722 mmHg 95%
    04:00 +5°C° 0.2 mm 2 mps 723 mmHg 95%
    05:00 +5°C° 0 mm 2 mps 723 mmHg 95%
    06:00 +5°C° 0 mm 2 mps 723 mmHg 95%
    07:00 +5°C° 0 mm 2 mps 724 mmHg 95%
    08:00 +7°C° 0 mm 2 mps 724 mmHg 90%
    09:00 +9°C° 0 mm 2 mps 724 mmHg 86%
    10:00 +10°C° 0 mm 2 mps 724 mmHg 82%
    11:00 +12°C° 0 mm 1 mps 724 mmHg 79%
    12:00 +13°C° 0 mm 1 mps 724 mmHg 76%
    13:00 +14°C° 0 mm 1 mps 724 mmHg 73%
    14:00 +14°C° 0 mm 1 mps 724 mmHg 74%
    15:00 +14°C° 0 mm 1 mps 724 mmHg 75%
    16:00 +14°C° 0 mm 1 mps 724 mmHg 77%
    17:00 +12°C° 0 mm 1 mps 724 mmHg 82%
    18:00 +10°C° 0 mm 1 mps 724 mmHg 88%
    19:00 +8°C° 0 mm 1 mps 724 mmHg 94%
    20:00 +8°C° 0 mm 1 mps 724 mmHg 94%
    21:00 +7°C° 0 mm 1 mps 724 mmHg 94%
    22:00 +7°C° 0 mm 1 mps 724 mmHg 94%
    23:00 +7°C° 0 mm 1 mps 724 mmHg 94%

    30 September, Sunday

    Time Temperature Precipitation Wind Pressure Humidity
    00:00 +7°C° 0 mm 1 mps 724 mmHg 94%
    01:00 +7°C° 0 mm 1 mps 723 mmHg 94%
    02:00 +6°C° 0 mm 1 mps 723 mmHg 95%
    03:00 +6°C° 0 mm 1 mps 723 mmHg 95%
    04:00 +6°C° 0 mm 1 mps 723 mmHg 95%
    05:00 +6°C° 0 mm 1 mps 723 mmHg 94%
    06:00 +6°C° 0 mm 1 mps 723 mmHg 93%
    07:00 +7°C° 0 mm 1 mps 723 mmHg 92%
    08:00 +9°C° 0 mm 1 mps 723 mmHg 85%
    09:00 +11°C° 0 mm 1 mps 723 mmHg 79%
    10:00 +12°C° 0 mm 2 mps 722 mmHg 73%
    11:00 +14°C° 0 mm 1 mps 722 mmHg 69%
    12:00 +15°C° 0 mm 1 mps 722 mmHg 66%
    13:00 +16°C° 0 mm 1 mps 721 mmHg 62%
    14:00 +15°C° 0 mm 1 mps 721 mmHg 64%
    15:00 +15°C° 0 mm 1 mps 721 mmHg 66%
    16:00 +14°C° 0 mm 1 mps 721 mmHg 68%
    17:00 +12°C° 0 mm 1 mps 721 mmHg 74%
    18:00 +10°C° 0 mm 1 mps 721 mmHg 81%
    19:00 +8°C° 0 mm 1 mps 721 mmHg 88%
    20:00 +8°C° 0 mm 1 mps 721 mmHg 87%
    21:00 +7°C° 0 mm 1 mps 721 mmHg 87%
    22:00 +7°C° 0 mm 1 mps 721 mmHg 87%
    23:00 +7°C° 0 mm 1 mps 721 mmHg 87%
    Show more